www.pogodaiklimat.ru

Погода и климат >> Архив погоды >> Россия >> Якутия >> Верхоянск


АРХИВ ПОГОДЫ в Верхоянске

Время (UTC), дата Ветер
(напр.,м/с)
 
Видим.   Явления Облачность Т
(С)
Тd
(С)
f
(%)
Тe
(С)
Тes
(С)
Комфортность P
(гПа)
Po
(гПа)
Тmin
(С)
Tmax
(С)
R
(мм)
R24
(мм)
S
(см)
09 14.04 Ю 4 50 км 3/3 1000 м
[Sc diur, vesp]
-3.3 -17.2 33 -8 -8 по сезону 1007.8 990.5 -2.3
12 14.04 СВ 2 20 км 1/0
[Ac trans]
-12.0 -21.5 45 -17 -17 прохладно 1009.7 991.8
15 14.04 штиль 0 20 км ясно -18.8 -22.9 70 -19 -19 по сезону 1010.2 991.8
18 14.04 штиль 0 20 км 1/0
[Ci fib]
-22.4 -24.9 80 -22 -22 по сезону 1010.2 991.6
21 14.04 штиль 0 50 км 8/0
[Ci fib]
-24.0 -26.5 80 -24 -23 прохладно 1010.1 991.3 -24.4 0
00 15.04 штиль 0 50 км 5/0
[Cs]
-14.2 -18.5 70 -14 -9 по сезону 1008.1 990.1 -24.3
03 15.04 С 2 50 км 8/0
[Cs]
-4.9 -13.8 50 -9 -3 по сезону 1006.1 988.7
06 15.04 СВ 3 50 км 9/0
[Cs]
-2.6 -14.3 40 -7 -4 по сезону 1004.6 987.4
09 15.04 СВ 2 50 км 10/0
[Ac trans Cs]
-2.8 -15.4 37 -6 -5 по сезону 1004.6 987.4 -2.2
12 15.04 С 1 20 км 9/0
[Ac trans Cs]
-5.6 -16.3 43 -7 -7 по сезону 1005.8 988.3
15 15.04 штиль 0 20 км 9/0
[Cs]
-10.3 -17.6 55 -10 -10 тепло 1005.8 988.0
18 15.04 штиль 0 20 км 5/0
[Ci fib]
-17.3 -22.3 65 -17 -17 по сезону 1007.3 989.0
21 15.04 ЮЗ 2 50 км 3/0
[Ci fib]
-18.4 -22.5 70 -24 -23 прохладно 1008.1 989.8 -19.5
00 16.04 З 1 50 км ясно -11.8 -17.9 60 -14 -9 по сезону 1008.1 990.2
03 16.04 штиль 0 50 км ясно -2.9 -14.3 41 -3 +6 тепло 1007.1 989.8
06 16.04 З 2 50 км 1/1 1500 м
[Cu hum]
-1.3 -15.4 33 -4 0 по сезону 1006.6 989.4
09 16.04 В 2 50 км 3/1 1500 м
[Cu hum Ci fib]
-1.3 -14.0 37 -4 -3 по сезону 1007.0 989.8 -0.4
12 16.04 С 1 20 км 1/0
[Ci fib]
-5.8 -14.8 49 -8 -8 по сезону 1008.5 991.0
15 16.04 штиль 0 20 км ясно -15.0 -19.2 70 -15 -15 по сезону 1009.4 991.3
18 16.04 штиль 0 20 км ясно -18.5 -20.4 85 -19 -19 по сезону 1009.9 991.5
21 16.04 СЗ 1 50 км 3/0
[Ci fib]
-19.6 -21.5 85 -23 -22 прохладно 1010.5 992.0 -20.4
00 17.04 З 1 50 км 4/0
[Ac trans]
-8.0 -12.6 69 -10 -6 по сезону 1009.7 992.1
03 17.04 С 3 50 км 10/0
[Cs]
-2.1 -11.6 48 -6 -2 по сезону 1008.0 990.8
06 17.04 С 5 50 км 10/0
[Ac trans Cs]
-1.9 -11.8 47 -8 -6 по сезону 1007.9 990.7
09 17.04 С 4
{10}
50 км 10/3 1000 м
[Cb cap As trans]
-3.8 -12.5 51 -9 -9 по сезону 1009.0 991.6 -1.3
12 17.04 С 2 20 км 10/0
[Ac As]
-7.1 -14.6 55 -11 -11 по сезону 1011.1 993.4
15 17.04 С 3 20 км 10/0
[Ac As]
-10.3 -16.6 60 -16 -16 по сезону 1011.8 994.0
18 17.04 С 1 н/о н/о -12.4 -17.7 65 -15 -15 по сезону 1012.9 994.9
21 17.04 СЗ 3 50 км 10/0
[Ac trans Cs]
-12.3 -17.5 65 -18 -18 по сезону 1014.0 996.0 -13.9
00 18.04 СЗ 4 50 км 8/0
[Cs]
-9.1 -15.3 61 -16 -13 по сезону 1014.1 996.3
03 18.04 СЗ 3 50 км 8/1 1000 м
[Sc Cs]
-7.1 -14.0 58 -12 -8 по сезону 1014.9 997.2
06 18.04 СЗ 3 50 км 8/0
[Cs]
-6.0 -13.9 54 -11 -8 холодно 1016.6 998.9
09 18.04 С 1 50 км 6/0
[Ci fib]
-5.2 -13.9 50 -7 -6 по сезону 1017.6 1000.0 -4.8
12 18.04 С 1 50 км ясно -10.7 -18.0 55 -13 -13 по сезону 1019.3 1001.3
15 18.04 штиль 0 20 км ясно -18.7 -22.0 75 -19 -19 по сезону 1020.9 1002.4
18 18.04 штиль 0 20 км ясно -22.5 -24.3 85 -23 -23 по сезону 1022.5 1003.6
21 18.04 штиль 0 50 км ясно -21.5 -23.3 85 -22 -20 прохладно 1023.2 1004.4 -23.6
00 19.04 С 1 50 км ясно -12.9 -17.2 70 -15 -10 по сезону 1022.4 1004.2
03 19.04 С 1 50 км ясно -3.9 -11.8 54 -6 +3 по сезону 1020.9 1003.3
06 19.04 ЮВ 3 50 км ясно -1.2 -13.8 38 -5 -1 по сезону 1019.2 1001.8
09 19.04 ЮВ 2 50 км ясно -1.6 -13.3 40 -5 -4 по сезону 1018.7 1001.3 -0.9
12 19.04 СВ 2 50 км ясно -6.0 -14.2 52 -10 -10 по сезону 1018.8 1001.1
15 19.04 В 1 20 км ясно -13.4 -18.6 65 -16 -16 по сезону 1019.5 1001.3
18 19.04 штиль 0 50 км ясно -18.6 -20.5 85 -19 -19 по сезону 1020.1 1001.5
21 19.04 штиль 0 50 км ясно -18.0 -20.6 80 -18 -17 по сезону 1020.3 1001.8 -19.5
00 20.04 СВ 3 50 км 1/0
[Ci fib]
-6.9 -13.1 61 -12 -8 по сезону 1019.6 1001.9
03 20.04 СВ 3 50 км 10/0
[Cs]
-2.5 -11.8 49 -7 -2 по сезону 1018.2 1000.8
06 20.04 СВ 3 50 км 10/0
[Cs]
-0.7 -12.8 39 -5 -1 по сезону 1016.7 999.4
09 20.04 В 3 50 км 10/0
[As trans]
-1.3 -12.1 44 -5 -5 по сезону 1016.1 998.7 -0.6
12 20.04 СВ 2 50 км 10/0
[As op]
-2.8 -11.8 50 -6 -6 по сезону 1015.1 997.7
15 20.04 С 1 20 км 10/0
[As op]
-5.0 -12.3 57 -7 -7 тепло 1013.3 995.8
18 20.04 СВ 1 50 км 10/0
[Ac trans Cs]
-8.6 -14.5 62 -11 -11 тепло 1012.2 994.5
21 20.04 ЮВ 1 50 км 10/0
[Ac trans Ci fib]
-10.0 -13.7 74 -12 -12 по сезону 1011.2 993.4 -11.5
00 21.04 СВ 3 50 км 8/0
[Ac trans Ci fib]
-2.7 -10.6 55 -7 -4 по сезону 1009.2 992.0
03 21.04 СВ 3 50 км 6/0
[Ac trans Ci fib]
+1.9 -6.5 54 -2 +4 тепло 1006.8 989.8
06 21.04 СВ 3 50 км 4/1 1500 м
[Cu med, cong Ci fib]
+5.6 -3.5 52 +3 +6 тепло 1005.0 988.3

 

Местоположение метеостанции Верхоянск (Якутия, Россия): широта 67.57 долгота 133.40 высота над уровнем моря 136 м.

В архиве по умолчанию представлена погода в Верхоянске за последнюю неделю. Архивные данные за месяц целиком и за предыдущие месяцы, начиная с января 2011 года, Вы можете получить, выбрав интересующий диапазон дат из раскрывающегося списка и нажав кнопку "Ввод!".


*Определитесь, кто Вы:
робот инопланетянин человек

Внимание! Время в таблицах - всемирное. Для получения местного времени необходимо прибавить поправку, которая равна 10 ч.

Смотрите также архив погоды в соседних городах и на ближайших метеорологических станциях:

Погода в Батагае (Якутия, Россия) (52 км)
Погода в Екюччю (Якутия, Россия) (118 км)
Погода в Батагай-Алыте (Якутия, Россия) (129 км)
Погода в Усть-Чарках (Якутия, Россия) (162 км)
Погода в Иэме (Якутия, Россия) (274 км)
Погода в Усть-Куйге (Якутия, Россия) (284 км)
Погода в Себян-Кюеле (Якутия, Россия) (294 км)
Погода в Депутатском (Якутия, Россия) (329 км)
Погода в Юбилейной (Якутия, Россия) (373 км)
Погода в Джарджане (Якутия, Россия) (409 км)

Пояснения к столбцам:

Ветер - указаны скорость ветра в м/с - средняя за 10 мин, порывы в срок и между сроками (в фигурных скобках) и направление, откуда дует ветер: С - северный, СВ - северо-восточный, В - восточный, ЮВ - юго-восточный, Ю - южный, ЮЗ - юго-западный, З - западный, СЗ - северо-западный.
Видимость - горизонтальная дальность видимости в метрах или километрах. При видимости от 1 до 10 км при отсутствии осадков обычно наблюдается дымка, при ухудшении видимости до 1 км и менее - туман. В сухую погоду видимость может ухудшаться дымом, пылью или мглою.
Явления - указаны атмосферные явления, наблюдавшиеся в срок или в последний час перед сроком; фигурными скобками обозначены явления, наблюдавшиеся между сроками (за 1-3 часа до срока); квадратными скобками обозначены град или гололедные отложения с указанием их диаметра в мм.
Облачность - указаны через наклонную черту общая и нижняя облачность в баллах и высота нижней границы облаков в метрах; квадратными скобками обозначены формы облаков: Ci - перистые, Cs - перисто-слоистые, Cc - перисто-кучевые, Ac - высококучевые, As - высокослоистые, Sc - слоисто-кучевые, Ns - слоисто-дождевые, Cu - кучевые, Cb - кучево-дождевые. Подробнее классификацию облаков см. в Атласе облаков (PDF).
T - Температура воздуха - температура, измеренная на высоте 2 м над землей.
Td - Температура точки росы - температура, при понижении до которой содержащийся в воздухе водяной пар достигнет насыщения.
f - Относительная влажность воздуха - влажноcть воздуха, измеренная на высоте 2 м над землей.
Te - Эффективная температура - температура, которую ощущает одетый по сезону человек в тени. Характеристика душности погоды. При расчете учитывается влияние влажности воздуха и скорости ветра на теплоощущения человека.
Tes - Эффективная температура на солнце - температура, которую ощущает человек, с поправкой на солнечный нагрев. Характеристика знойности погоды. Зависит от высоты солнца над горизонтом, облачности и скорости ветра. Ночью, в пасмурную погоду, а также при ветре 12 м/с и более поправка равна нулю.
P - Атмосферное давление - приведенное к уровню моря атмосферное давление.
Po - Атмосферное давление - измеренное на уровне метеостанции атмосферное давление.
Tmin - Минимальная температура - минимум температуры воздуха на высоте 2 м над землей.
Tmax - Максимальная температура - максимум температуры воздуха на высоте 2 м над землей.
R - Количество осадков - Количество выпавших осадков за период времени, мм. При наведении курсора мыши на число - период времени, за который выпало указанное количество осадков.
R24 - Количество осадков - Количество выпавших осадков за 24 часа, мм.
S - Снежный покров - Высота снежного покрова, см. При наведении курсора мыши на число - состояние снежного покрова и степень покрытия местности в баллах.